Weather History for Clinton-Sherman, OK

Change the Weather History Date:

Friday, May 25, 2012

  Actual Average Record
Temperature  
Mean Temperature 84 °F -  
Max Temperature 96 °F 82 °F 99 °F (2006)
Min Temperature 72 °F 58 °F 46 °F (2001)
Cooling Degree Days 18    
Growing Degree Days 34 (Base 50)    
Moisture  
Dew Point 67 °F    
Average Humidity 62    
Maximum Humidity 88    
Minimum Humidity 38    
Precipitation  
Precipitation 0.00 in - - ()
Sea Level Pressure  
Sea Level Pressure 29.70 in    
Wind  
Wind Speed 18 mph (SSE)    
Max Wind Speed 29 mph    
Max Gust Speed 37 mph    
Visibility 10 miles    
Events Thunderstorm    
Averages and records for this station are not official NWS values.
T = Trace of Precipitation, MM = Missing Value Source: NWS Daily Summary

Daily Weather History Graph

Daily Weather History Graph

Search for Another Location

Airport:

Trip Planner

Search our weather history database for the weather conditions in past years. The results will help you decide how hot, cold, wet, or windy it might be!

Date:

Astronomy

May. 25, 2012 Rise Set
Actual Time 6:25 AM CDT 8:42 PM CDT
Civil Twilight 5:56 AM CDT 9:11 PM CDT
Nautical Twilight 5:21 AM CDT 9:46 PM CDT
Astronomical Twilight 4:42 AM CDT 10:25 PM CDT
Moon 10:24 AM CDT (5/25) No Moon Set
Length of Visible Light 15h 14m
Length of Day
14h 16m
Waxing Crescent, 20% of the Moon is Illuminated
May 25
Waxing Crescent
May 28
First Quarter
Jun 4
Full
Jun 11
Last Quarter
Jun 19
New

Hourly Weather History & Observations

Time (CDT) Temp. Heat Index Dew Point Humidity Pressure Visibility Wind Dir Wind Speed Gust Speed Precip Events Conditions
12:53 AM 75.9 °F - 57.0 °F 52% 29.60 in 10.0 mi ESE 11.5 mph - N/A   Clear
1:53 AM 73.9 °F - 62.1 °F 66% 29.59 in 10.0 mi SSE 11.5 mph - N/A   Clear
2:53 AM 73.9 °F - 66.0 °F 76% 29.59 in 10.0 mi SSE 15.0 mph - N/A   Clear
3:53 AM 75.0 °F - 66.9 °F 76% 29.58 in 10.0 mi South 20.7 mph 29.9 mph N/A   Clear
4:53 AM 73.9 °F - 66.9 °F 79% 29.60 in 10.0 mi South 20.7 mph 28.8 mph N/A   Clear
5:53 AM 73.0 °F - 68.0 °F 84% 29.62 in 10.0 mi South 17.3 mph 24.2 mph N/A   Clear
6:53 AM 72.0 °F - 68.0 °F 87% 29.65 in 10.0 mi South 17.3 mph 26.5 mph N/A   Clear
7:48 AM 73.4 °F - 69.8 °F 88% 29.76 in 10.0 mi SSE 18.4 mph 26.5 mph N/A   Partly Cloudy
7:53 AM 73.0 °F - 69.1 °F 87% 29.69 in 10.0 mi SSE 19.6 mph - N/A   Scattered Clouds
8:09 AM 73.4 °F - 69.8 °F 88% 29.77 in 10.0 mi SSE 21.9 mph 27.6 mph N/A   Mostly Cloudy
8:33 AM 75.2 °F - 69.8 °F 83% 29.78 in 10.0 mi SSE 21.9 mph 27.6 mph N/A   Mostly Cloudy
8:43 AM 75.2 °F - 69.8 °F 83% 29.78 in 10.0 mi SSE 21.9 mph 29.9 mph N/A   Scattered Clouds
8:53 AM 75.9 °F - 69.1 °F 79% 29.71 in 10.0 mi SSE 21.9 mph 27.6 mph N/A   Partly Cloudy
9:53 AM 80.1 °F 82.9 °F 69.1 °F 69% 29.72 in 10.0 mi South 21.9 mph 31.1 mph N/A   Clear
10:53 AM 82.9 °F 86.5 °F 69.1 °F 63% 29.70 in 10.0 mi South 18.4 mph 29.9 mph N/A   Clear
11:53 AM 88.0 °F 92.1 °F 69.1 °F 53% 29.71 in 10.0 mi SSE 19.6 mph 27.6 mph N/A   Clear
12:53 PM 91.0 °F 95.2 °F 68.0 °F 47% 29.71 in 10.0 mi South 18.4 mph 24.2 mph N/A   Clear
1:53 PM 91.9 °F 95.9 °F 68.0 °F 45% 29.70 in 10.0 mi South 23.0 mph 29.9 mph N/A   Clear
2:53 PM 93.9 °F 97.5 °F 66.9 °F 41% 29.69 in 10.0 mi SSE 23.0 mph 31.1 mph N/A   Clear
3:53 PM 95.0 °F 97.9 °F 66.0 °F 38% 29.68 in 10.0 mi SSE 27.6 mph 34.5 mph N/A   Clear
4:53 PM 95.0 °F 97.9 °F 66.0 °F 38% 29.68 in 10.0 mi SSE 25.3 mph 35.7 mph N/A   Clear
5:53 PM 93.9 °F 96.1 °F 64.9 °F 38% 29.68 in 10.0 mi SSE 26.5 mph 35.7 mph N/A   Clear
6:53 PM 91.9 °F 94.1 °F 64.9 °F 41% 29.67 in 10.0 mi SSE 28.8 mph 36.8 mph N/A   Clear
7:53 PM 89.1 °F 91.3 °F 66.0 °F 46% 29.68 in 10.0 mi SE 24.2 mph 32.2 mph N/A   Clear
8:53 PM 87.1 °F 89.2 °F 66.0 °F 49% 29.73 in 10.0 mi SE 17.3 mph 25.3 mph N/A   Scattered Clouds
9:00 PM 87.8 °F 90.4 °F 66.2 °F 49% 29.81 in 10.0 mi SE 16.1 mph 25.3 mph N/A Thunderstorm Partly Cloudy
9:15 PM 87.8 °F 90.4 °F 66.2 °F 49% 29.82 in 10.0 mi SE 16.1 mph 25.3 mph N/A   Clear
9:53 PM 86.0 °F 87.6 °F 64.9 °F 49% 29.75 in 10.0 mi SSE 20.7 mph 27.6 mph N/A   Clear
10:53 PM 84.0 °F 85.4 °F 64.0 °F 51% 29.77 in 10.0 mi SSE 19.6 mph 32.2 mph N/A   Clear
11:53 PM 81.0 °F 82.7 °F 64.9 °F 58% 29.77 in 10.0 mi South 19.6 mph 31.1 mph N/A   Clear